"startDT [UTC]","vpos","CH4 [ppm]","stdev(CH4) [ppm]","CO2 [ppm]","stdev(CO2) [ppm]","H2O_reported [%]","stdev(H2O_reported)","CavityPressure [torr]","CavityTemp [C]","OutletValve","CH4_dry [ppm]","CO2_dry [ppm]","DasTemp [C]","EtalonTemp [C]","WarmBoxTemp [C]","MPVPosition","T_ECpre [C]","T_EC1 [C]","T_EC2 [C]","p_inlet [hPa]","p_in [hPa]","p_out [hPa]","T_inlet [C]","RH_inlet [%]","dwpt_inlet [C]","T_vent [C]","RH_vent [%]","dwpt_vent [C]","flow_vent [l min-1]","flow_inlet [l min-1]","dwpt_sample [C]","T_room [C]"
2015-01-02 00:00:00,0.0,1.95236,0.00041,405.676,0.056,0.0224,0.0016,140.001,45.000,28537.23552,1.95277,405.783,32.750,45.067,45.000,0.00,0.09,-272.68,-272.75,-9,125,-1,19.4,0.8,-40.7,19.9,3.5,-24.7,5.73,2.31,-20.6,25.8
2015-01-02 00:01:00,0.0,1.95298,0.00046,405.822,0.047,0.0229,0.0018,139.998,45.000,28535.51907,1.95342,405.933,32.750,45.067,45.000,0.00,0.09,-272.69,-272.75,-8,126,-1,19.4,0.8,-40.6,19.9,3.5,-24.8,5.73,2.46,-20.6,25.8
2015-01-02 00:02:00,0.0,1.95318,0.00038,405.868,0.035,0.0230,0.0014,139.998,45.000,28533.46603,1.95360,405.978,32.750,45.067,45.000,0.00,0.30,-271.11,-272.70,-9,125,-1,19.4,0.8,-40.3,19.9,3.5,-24.8,5.43,2.47,-22.3,25.8
2015-01-02 00:03:00,0.0,1.95365,0.00040,405.934,0.033,0.0230,0.0015,140.001,45.000,28532.78628,1.95407,406.046,32.749,45.067,45.000,0.00,0.09,-272.69,-272.74,-10,125,-1,19.4,0.8,-40.5,19.9,3.5,-24.8,5.73,2.33,-20.6,25.8
2015-01-02 00:04:00,0.0,1.95350,0.00032,405.942,0.032,0.0226,0.0020,140.000,45.000,28531.75857,1.95393,406.052,32.750,45.067,45.000,0.00,0.09,-272.68,-272.75,-9,125,-1,19.4,0.8,-40.6,19.9,3.5,-24.8,5.73,2.29,-20.6,25.8
2015-01-02 00:05:00,0.0,1.95331,0.00034,405.921,0.026,0.0234,0.0025,139.998,45.000,28532.23707,1.95378,406.035,32.749,45.067,45.000,0.00,0.09,-272.69,-272.75,-9,125,-1,19.4,0.8,-40.7,19.9,3.5,-24.8,5.73,2.43,-20.6,25.8
2015-01-02 00:06:00,0.0,1.95337,0.00033,405.956,0.021,0.0226,0.0019,140.000,45.000,28530.02508,1.95380,406.066,32.750,45.067,45.000,0.00,0.09,-272.69,-272.74,-10,125,-1,19.4,0.8,-40.5,19.9,3.5,-24.8,5.73,2.49,-20.6,25.8
2015-01-02 00:07:00,0.0,1.95351,0.00037,405.938,0.034,0.0241,0.0017,140.000,45.000,28528.74236,1.95396,406.056,32.749,45.067,45.000,0.00,0.09,-272.69,-272.73,-9,124,-1,19.4,0.8,-40.3,19.9,3.5,-24.8,5.73,2.36,-20.6,25.8
2015-01-02 00:08:00,0.0,1.95356,0.00041,405.934,0.027,0.0239,0.0018,139.997,45.000,28529.82213,1.95402,406.050,32.750,45.067,45.000,0.00,0.09,-272.68,-272.75,-8,125,-1,19.4,0.8,-40.1,19.9,3.5,-24.8,5.73,2.28,-20.6,25.8
2015-01-02 00:09:00,0.0,1.95370,0.00029,405.909,0.032,0.0238,0.0019,139.999,45.000,28532.00423,1.95416,406.025,32.750,45.067,45.000,0.00,0.09,-272.69,-272.75,-10,126,-1,19.4,0.8,-40.0,19.9,3.5,-24.8,5.73,2.41,-20.6,25.8
2015-01-02 00:10:00,0.0,1.95393,0.00039,405.867,0.038,0.0246,0.0016,139.998,45.000,28531.23243,1.95438,405.989,32.750,45.067,45.000,0.00,0.09,-272.69,-272.74,-10,125,-1,19.4,0.8,-39.9,19.9,3.5,-24.8,5.73,2.50,-20.6,25.8
2015-01-02 00:11:00,0.0,1.95343,0.00045,405.872,0.039,0.0239,0.0013,140.005,45.000,28533.03284,1.95393,405.987,32.750,45.067,45.000,0.00,0.09,-272.69,-272.74,-8,125,-1,19.4,0.8,-40.0,19.9,3.5,-24.8,5.73,2.39,-20.6,25.8
2015-01-02 00:12:00,0.0,1.95333,0.00034,405.924,0.038,0.0239,0.0014,139.999,45.000,28532.49924,1.95378,406.041,32.736,45.067,45.000,0.00,0.09,-272.68,-272.75,-9,126,-1,19.4,0.8,-40.0,19.9,3.5,-24.8,5.73,2.28,-20.6,25.8
2015-01-02 00:13:00,0.0,1.95335,0.00031,405.901,0.036,0.0247,0.0017,139.997,45.000,28532.40239,1.95384,406.022,32.723,45.068,45.000,0.00,0.09,-272.68,-272.75,-10,125,-1,19.4,0.8,-39.9,19.9,3.5,-24.8,5.73,2.36,-20.6,25.8
2015-01-02 00:14:00,0.0,1.95401,0.00089,405.908,0.032,0.0246,0.0012,139.999,45.000,28531.05296,1.95441,406.026,32.732,45.068,45.000,0.00,0.09,-272.69,-272.74,-9,125,-1,19.4,0.8,-39.8,19.9,3.5,-24.8,5.73,2.49,-20.6,25.8
2015-01-02 00:15:00,0.0,1.95531,0.00050,405.945,0.035,0.0229,0.0019,140.001,45.000,28530.10854,1.95576,406.057,32.715,45.067,45.000,0.00,0.09,-272.69,-272.75,-9,125,-1,19.4,0.8,-40.3,19.9,3.5,-24.8,5.73,2.43,-20.6,25.8
2015-01-02 00:16:00,0.0,1.95521,0.00038,405.953,0.032,0.0226,0.0016,140.001,45.000,28529.95263,1.95563,406.064,32.736,45.068,45.000,0.00,0.09,-272.68,-272.75,-10,125,-1,19.4,0.7,-41.0,19.9,3.5,-24.8,5.73,2.29,-20.6,25.8
2015-01-02 00:17:00,0.0,1.95620,0.00042,405.959,0.034,0.0205,0.0016,139.999,45.000,28531.89234,1.95660,406.059,32.741,45.067,45.000,0.00,0.09,-272.68,-272.74,-9,125,-1,19.4,0.7,-41.5,19.9,3.5,-24.9,5.73,2.33,-20.6,25.8
2015-01-02 00:18:00,0.0,1.95479,0.00080,405.959,0.034,0.0210,0.0013,139.998,45.000,28533.42880,1.95513,406.061,32.732,45.067,45.000,0.00,0.09,-272.69,-272.75,-8,125,-1,19.4,0.7,-41.7,19.9,3.5,-24.9,5.73,2.48,-20.6,25.8
2015-01-02 00:19:00,0.0,1.95628,0.00046,405.965,0.028,0.0205,0.0016,140.001,45.000,28535.51386,1.95670,406.065,32.735,45.067,45.000,0.00,0.09,-272.70,-272.74,-9,125,-1,19.4,0.7,-41.7,19.9,3.5,-24.9,5.73,2.45,-20.6,25.8
2015-01-02 00:20:00,0.0,1.95546,0.00042,405.968,0.035,0.0212,0.0015,140.000,45.000,28535.31970,1.95591,406.070,32.735,45.067,45.000,0.00,0.09,-272.69,-272.74,-9,126,-1,19.4,0.7,-41.4,19.9,3.5,-24.9,5.73,2.31,-20.6,25.8
2015-01-02 00:21:00,0.0,1.95522,0.00048,405.971,0.031,0.0222,0.0025,139.998,45.000,28532.65017,1.95565,406.081,32.747,45.067,45.000,0.00,0.09,-272.68,-272.75,-9,125,-1,19.4,0.7,-41.1,19.9,3.5,-24.9,5.73,2.31,-20.6,25.8
2015-01-02 00:22:00,0.0,1.95532,0.00056,405.967,0.035,0.0222,0.0015,140.000,45.000,28534.77477,1.95574,406.074,32.720,45.067,45.000,0.00,0.09,-272.69,-272.75,-9,126,-1,19.4,0.7,-41.0,19.9,3.5,-24.9,5.73,2.44,-20.6,25.8
2015-01-02 00:23:00,0.0,1.95482,0.00038,405.981,0.026,0.0227,0.0017,140.001,45.000,28536.15945,1.95528,406.091,32.702,45.068,45.000,0.00,0.09,-272.70,-272.74,-10,126,-1,19.4,0.7,-41.0,19.9,3.5,-24.9,5.73,2.48,-20.6,25.8
2015-01-02 00:24:00,0.0,1.95488,0.00043,405.957,0.021,0.0224,0.0016,139.999,45.000,28535.70340,1.95527,406.067,32.701,45.068,45.000,0.00,0.09,-272.69,-272.74,-9,125,-1,19.3,0.8,-40.7,19.9,3.5,-24.9,5.73,2.36,-20.6,25.8
2015-01-02 00:25:00,0.0,1.95487,0.00052,405.989,0.028,0.0238,0.0028,140.000,45.000,28536.66975,1.95537,406.103,32.692,45.068,45.000,0.00,0.09,-272.68,-272.75,-8,126,-1,19.4,0.8,-40.1,19.9,3.5,-24.9,5.73,2.28,-20.6,25.8
2015-01-02 00:26:00,0.0,1.95422,0.00043,405.957,0.031,0.0295,0.0024,140.000,45.000,28534.83425,1.95478,406.101,32.690,45.068,45.000,0.00,0.09,-272.68,-272.75,-9,126,-1,19.4,1.0,-37.9,19.9,3.5,-24.9,5.73,2.39,-20.6,25.8
2015-01-02 00:27:00,0.0,1.95442,0.00063,405.964,0.028,0.0246,0.0025,139.998,45.000,28533.19996,1.95492,406.085,32.691,45.068,45.000,0.00,0.09,-272.68,-272.74,-10,125,-1,19.3,0.9,-39.0,19.9,3.5,-24.9,5.73,2.49,-20.6,25.8
2015-01-02 00:28:00,0.0,1.95406,0.00046,405.979,0.027,0.0239,0.0015,140.003,45.000,28537.17815,1.95454,406.095,32.688,45.068,45.000,0.00,0.09,-272.69,-272.74,-9,126,-1,19.4,0.8,-40.2,19.9,3.5,-24.9,5.73,2.42,-20.6,25.8
2015-01-02 00:29:00,0.0,1.95308,0.00044,405.910,0.032,0.0237,0.0019,139.998,45.000,28536.36324,1.95354,406.025,32.687,45.068,45.000,0.00,0.09,-272.69,-272.75,-9,126,-1,19.3,0.8,-40.3,19.9,3.5,-24.9,5.73,2.30,-20.6,25.8
2015-01-02 00:30:00,0.0,1.95279,0.00033,405.948,0.040,0.0237,0.0018,139.995,45.000,28531.05227,1.95325,406.064,32.685,45.068,45.000,0.00,0.09,-272.68,-272.75,-10,125,-1,19.4,0.8,-40.0,19.9,3.5,-24.9,5.73,2.32,-20.6,25.8
2015-01-02 00:31:00,0.0,1.95266,0.00032,406.055,0.029,0.0245,0.0020,139.997,45.000,28535.43668,1.95313,406.171,32.685,45.068,45.000,0.00,0.09,-272.68,-272.75,-9,126,-1,19.3,0.8,-39.9,19.8,3.5,-24.9,5.73,2.47,-20.6,25.8
2015-01-02 00:32:00,0.0,1.95311,0.00030,405.986,0.031,0.0245,0.0015,139.998,45.000,28533.48396,1.95357,406.107,32.686,45.067,45.000,0.00,0.09,-272.70,-272.74,-8,126,-1,19.3,0.9,-39.6,19.8,3.5,-24.9,5.73,2.47,-20.7,25.7
2015-01-02 00:33:00,0.0,1.95283,0.00056,406.148,0.101,0.0250,0.0017,139.999,45.000,28533.71266,1.95333,406.265,32.684,45.067,45.000,0.00,0.09,-272.70,-272.74,-9,126,-1,19.3,0.9,-39.4,19.8,3.5,-24.9,5.73,2.35,-20.7,25.7
2015-01-02 00:34:00,0.0,1.95259,0.00029,406.201,0.041,0.0255,0.0015,139.999,45.000,28534.88720,1.95307,406.327,32.685,45.068,45.000,0.00,0.09,-272.68,-272.74,-10,126,-1,19.3,0.9,-39.4,19.8,3.5,-24.9,5.73,2.29,-20.7,25.7
2015-01-02 00:35:00,0.0,1.95240,0.00029,406.206,0.045,0.0248,0.0014,140.000,45.000,28537.06875,1.95291,406.326,32.659,45.068,45.000,0.00,0.09,-272.68,-272.75,-9,126,-1,19.3,0.9,-39.4,19.8,3.5,-24.9,5.73,2.39,-20.7,25.7
2015-01-02 00:36:00,0.0,1.95271,0.00035,406.190,0.031,0.0259,0.0020,139.999,45.000,28537.05610,1.95320,406.316,32.665,45.068,45.000,0.00,0.09,-272.69,-272.75,-9,126,-1,19.3,0.9,-39.4,19.8,3.5,-24.9,5.73,2.49,-20.7,25.7
2015-01-02 00:37:00,0.0,1.95272,0.00034,406.153,0.033,0.0248,0.0017,140.000,45.000,28539.41091,1.95318,406.275,32.669,45.068,45.000,0.00,0.09,-272.69,-272.74,-9,127,-1,19.3,0.9,-39.4,19.8,3.5,-24.9,5.73,2.42,-20.7,25.7
2015-01-02 00:38:00,0.0,1.95269,0.00043,406.135,0.029,0.0243,0.0019,140.001,45.000,28538.33482,1.95319,406.254,32.667,45.068,45.000,0.00,0.09,-272.68,-272.74,-9,126,-1,19.3,0.9,-39.6,19.8,3.5,-24.9,5.73,2.30,-20.7,25.7
2015-01-02 00:39:00,0.0,1.95292,0.00030,406.122,0.022,0.0244,0.0017,140.000,45.000,28537.97076,1.95335,406.241,32.656,45.068,45.000,0.00,0.09,-272.68,-272.76,-8,126,-1,19.3,0.8,-39.9,19.8,3.5,-24.9,5.73,2.32,-20.7,25.7
2015-01-02 00:40:00,0.0,1.95268,0.00035,406.109,0.031,0.0235,0.0016,139.999,45.000,28537.46386,1.95314,406.225,32.669,45.068,45.000,0.00,0.09,-272.68,-272.75,-9,126,-1,19.3,0.8,-39.9,19.8,3.5,-24.9,5.73,2.45,-20.7,25.7
2015-01-02 00:41:00,0.0,1.95232,0.00035,406.087,0.035,0.0249,0.0020,140.000,45.000,28538.13532,1.95280,406.207,32.637,45.067,45.000,0.00,0.09,-272.69,-272.74,-10,126,-1,19.3,0.9,-39.6,19.8,3.5,-24.9,5.73,2.48,-20.7,25.7
2015-01-02 00:42:00,0.0,1.95228,0.00040,406.108,0.033,0.0260,0.0016,139.999,45.000,28535.44201,1.95281,406.235,32.640,45.068,45.000,0.00,0.09,-272.69,-272.75,-9,126,-1,19.3,0.9,-39.0,19.8,3.5,-24.9,5.73,2.35,-20.7,25.7
2015-01-02 00:43:00,0.0,1.95258,0.00033,406.117,0.027,0.0266,0.0018,140.001,45.000,28537.89645,1.95306,406.247,32.649,45.068,45.000,0.00,0.09,-272.68,-272.75,-8,127,-1,19.3,0.9,-38.7,19.8,3.5,-24.9,5.73,2.28,-20.7,25.7
2015-01-02 00:44:00,0.0,1.95230,0.00043,406.095,0.035,0.0267,0.0018,139.999,45.000,28538.79462,1.95282,406.225,32.642,45.068,45.000,0.00,0.09,-272.68,-272.75,-9,127,-1,19.3,1.0,-38.5,19.8,3.5,-24.9,5.73,2.38,-20.7,25.7
2015-01-02 00:45:00,0.0,1.95205,0.00040,406.066,0.041,0.0272,0.0015,140.000,45.000,28540.89753,1.95258,406.201,32.641,45.068,45.000,0.00,0.09,-272.69,-272.74,-9,127,-1,19.3,1.0,-38.5,19.8,3.5,-24.9,5.73,2.49,-20.7,25.7
2015-01-02 00:46:00,0.0,1.95218,0.00031,405.989,0.044,0.0278,0.0017,139.999,45.000,28542.03679,1.95271,406.124,32.628,45.067,45.000,0.00,0.09,-272.70,-272.74,-8,127,-1,19.3,1.0,-38.2,19.8,3.5,-24.9,5.73,2.44,-20.7,25.7
2015-01-02 00:47:00,0.0,1.95291,0.00052,405.930,0.074,0.0272,0.0022,139.998,45.000,28542.67252,1.95339,406.065,32.627,45.067,45.000,0.00,0.09,-272.69,-272.73,-9,128,-1,19.3,1.0,-38.5,19.8,3.5,-24.9,5.73,2.32,-20.7,25.7
2015-01-02 00:48:00,0.0,1.95353,0.00031,405.793,0.035,0.0278,0.0018,140.000,45.000,28541.36790,1.95406,405.928,32.626,45.068,45.000,0.00,0.09,-272.68,-272.75,-10,127,-1,19.3,1.0,-38.6,19.8,3.5,-25.0,5.73,2.30,-20.7,25.7
2015-01-02 00:49:00,0.0,1.95405,0.00044,405.769,0.025,0.0260,0.0011,140.000,45.000,28540.98999,1.95449,405.898,32.657,45.068,45.000,0.00,0.09,-272.68,-272.75,-9,127,-1,19.3,0.9,-38.8,19.8,3.5,-25.0,5.73,2.42,-20.7,25.7
2015-01-02 00:50:00,0.0,1.95407,0.00034,405.737,0.031,0.0260,0.0015,139.998,45.000,28543.86058,1.95460,405.864,32.651,45.067,45.000,0.00,0.09,-272.69,-272.74,-8,128,-1,19.3,0.9,-38.9,19.8,3.5,-25.0,5.73,2.49,-20.7,25.7
2015-01-02 00:51:00,0.0,1.95367,0.00063,405.847,0.082,0.0258,0.0017,139.999,45.000,28545.15083,1.95420,405.968,32.661,45.067,45.000,0.00,0.09,-272.69,-272.74,-9,128,-1,19.3,0.9,-39.1,19.8,3.5,-25.0,5.73,2.41,-20.7,25.7
2015-01-02 00:52:00,0.0,1.95284,0.00037,406.096,0.042,0.0250,0.0018,140.000,45.000,28547.23337,1.95334,406.218,32.639,45.067,45.000,0.00,0.09,-272.69,-272.75,-10,128,-1,19.3,0.9,-39.4,19.8,3.5,-25.0,5.73,2.30,-20.7,25.7
2015-01-02 00:53:00,0.0,1.95303,0.00037,406.068,0.037,0.0250,0.0015,139.999,45.000,28549.41268,1.95350,406.188,32.646,45.067,45.000,0.00,0.09,-272.68,-272.75,-9,128,-1,19.3,0.9,-39.4,19.8,3.5,-25.0,5.73,2.32,-20.7,25.7
2015-01-02 00:54:00,0.0,1.95297,0.00045,406.022,0.037,0.0249,0.0016,139.997,45.000,28548.97317,1.95345,406.145,32.642,45.068,45.000,0.00,0.09,-272.67,-272.75,-8,128,-1,19.3,0.9,-39.5,19.8,3.5,-25.0,5.73,2.43,-20.7,25.7
2015-01-02 00:55:00,0.0,1.95285,0.00024,405.996,0.042,0.0245,0.0020,139.999,45.000,28548.54267,1.95331,406.117,32.625,45.067,45.000,0.00,0.09,-272.69,-272.74,-9,128,-1,19.3,0.9,-39.4,19.8,3.5,-25.0,5.73,2.48,-20.7,25.7
2015-01-02 00:56:00,0.0,1.95269,0.00055,405.997,0.049,0.0253,0.0014,139.998,45.000,28546.65603,1.95318,406.119,32.626,45.068,45.000,0.00,0.09,-272.70,-272.74,-9,128,-1,19.3,0.9,-39.3,19.8,3.5,-25.0,5.73,2.40,-20.7,25.7
2015-01-02 00:57:00,0.0,1.95257,0.00041,406.028,0.045,0.0263,0.0012,139.998,45.000,28545.00385,1.95309,406.155,32.625,45.068,45.000,0.00,0.09,-272.68,-272.75,-9,127,-1,19.3,0.9,-39.2,19.8,3.5,-25.0,5.73,2.29,-20.7,25.7
2015-01-02 00:58:00,0.0,1.95284,0.00036,406.066,0.032,0.0259,0.0020,140.000,45.000,28543.40047,1.95334,406.192,32.625,45.068,45.000,0.00,0.09,-272.68,-272.75,-8,128,-1,19.3,0.9,-39.1,19.7,3.5,-25.0,5.73,2.32,-20.7,25.7
2015-01-02 00:59:00,0.0,1.95319,0.00051,406.126,0.030,0.0261,0.0025,140.000,45.000,28540.80984,1.95367,406.252,32.624,45.068,45.000,0.00,0.09,-272.69,-272.75,-9,127,-1,19.3,0.9,-39.5,19.8,3.5,-25.0,5.73,2.44,-20.7,25.7
2015-01-02 01:00:00,0.0,1.95347,0.00054,406.113,0.024,0.0248,0.0016,140.000,45.000,28542.16393,1.95393,406.234,32.621,45.068,45.000,0.00,0.09,-272.70,-272.74,-9,127,-1,19.3,0.9,-39.7,19.8,3.5,-25.0,5.73,2.48,-20.7,25.7
2015-01-02 01:01:00,0.0,1.95366,0.00056,406.134,0.037,0.0245,0.0018,140.001,45.000,28542.18124,1.95414,406.255,32.597,45.068,45.000,0.00,0.09,-272.68,-272.73,-8,128,-1,19.3,0.9,-39.7,19.8,3.5,-25.0,5.73,2.38,-20.7,25.7
2015-01-02 01:02:00,0.0,1.95339,0.00035,406.101,0.047,0.0247,0.0021,140.002,45.000,28545.22864,1.95384,406.219,32.570,45.068,45.000,0.00,0.09,-272.69,-272.75,-8,128,-1,19.3,0.9,-39.7,19.7,3.5,-25.0,5.73,2.29,-20.7,25.7
2015-01-02 01:03:00,0.0,1.95428,0.00044,406.185,0.028,0.0245,0.0015,140.001,45.000,28543.78139,1.95474,406.306,32.565,45.068,45.000,0.00,0.09,-272.68,-272.75,-9,128,-1,19.3,0.9,-39.8,19.7,3.5,-25.0,5.73,2.34,-20.7,25.7
2015-01-02 01:04:00,0.0,1.95439,0.00042,406.191,0.029,0.0234,0.0016,139.999,45.000,28543.88283,1.95484,406.304,32.581,45.068,45.000,0.00,0.09,-272.68,-272.74,-9,128,-1,19.3,0.8,-40.1,19.7,3.5,-25.0,5.73,2.45,-20.7,25.7
2015-01-02 01:05:00,0.0,1.95368,0.00052,406.177,0.050,0.0242,0.0019,140.001,45.000,28544.75626,1.95414,406.298,32.605,45.068,45.000,0.00,0.09,-272.69,-272.74,-8,128,-1,19.3,0.8,-40.3,19.7,3.5,-25.1,5.73,2.47,-20.7,25.7
2015-01-02 01:06:00,0.0,1.95427,0.00051,406.110,0.069,0.0239,0.0015,140.001,45.000,28542.90210,1.95474,406.228,32.612,45.067,45.000,0.00,0.09,-272.70,-272.75,-8,128,-1,19.3,0.8,-40.0,19.8,3.5,-25.0,5.73,2.38,-20.7,25.7
2015-01-02 01:07:00,0.0,1.95390,0.00035,405.954,0.030,0.0239,0.0015,139.999,45.000,28542.98521,1.95434,406.071,32.621,45.067,45.000,0.00,0.09,-272.68,-272.75,-9,128,-1,19.3,0.8,-40.0,19.7,3.5,-25.0,5.73,2.29,-20.7,25.7
2015-01-02 01:08:00,0.0,1.95380,0.00039,405.944,0.034,0.0243,0.0021,140.001,45.000,28543.23445,1.95428,406.064,32.621,45.067,45.000,0.00,0.09,-272.68,-272.75,-9,127,-1,19.3,0.9,-39.8,19.7,3.5,-25.0,5.73,2.34,-20.7,25.6
2015-01-02 01:09:00,0.0,1.95365,0.00035,405.930,0.038,0.0258,0.0014,139.999,45.000,28544.76577,1.95417,406.055,32.625,45.067,45.000,0.00,0.09,-272.69,-272.75,-8,128,-1,19.3,0.9,-39.5,19.7,3.5,-25.1,5.73,2.45,-20.7,25.7
2015-01-02 01:10:00,0.0,1.95415,0.00031,405.939,0.041,0.0260,0.0017,140.003,45.000,28543.64892,1.95461,406.064,32.625,45.067,45.000,0.00,0.09,-272.69,-272.74,-9,128,-1,19.3,0.9,-39.2,19.7,3.5,-25.0,5.73,2.47,-20.7,25.7
2015-01-02 01:11:00,0.0,1.95398,0.00040,405.922,0.030,0.0258,0.0022,140.002,45.000,28546.26632,1.95450,406.049,32.626,45.067,45.000,0.00,0.09,-272.69,-272.74,-9,128,-1,19.3,0.9,-39.1,19.7,3.5,-25.1,5.73,2.36,-20.7,25.7
2015-01-02 01:12:00,0.0,1.95384,0.00034,405.888,0.031,0.0263,0.0022,139.999,45.000,28549.27480,1.95433,406.018,32.630,45.067,45.000,0.00,0.09,-272.68,-272.74,-9,128,-1,19.3,0.9,-39.0,19.7,3.5,-25.0,5.73,2.29,-20.7,25.7
2015-01-02 01:13:00,0.0,1.95361,0.00034,405.897,0.040,0.0272,0.0022,139.999,45.000,28550.97100,1.95413,406.029,32.632,45.067,45.000,0.00,0.09,-272.68,-272.75,-8,129,-1,19.3,0.9,-39.0,19.7,3.5,-25.0,5.73,2.35,-20.7,25.7
2015-01-02 01:14:00,0.0,1.95350,0.00042,405.888,0.036,0.0259,0.0018,139.999,45.000,28549.73363,1.95399,406.015,32.656,45.067,45.000,0.00,0.09,-272.68,-272.74,-9,129,-1,19.3,0.9,-38.9,19.7,3.5,-25.0,5.73,2.46,-20.7,25.7
2015-01-02 01:15:00,0.0,1.95422,0.00053,405.884,0.033,0.0266,0.0015,139.999,45.000,28551.28215,1.95469,406.013,32.673,45.067,45.000,0.00,0.09,-272.69,-272.74,-9,129,-1,19.3,0.9,-38.9,19.7,3.5,-25.0,5.73,2.47,-20.7,25.7
2015-01-02 01:16:00,0.0,1.95525,0.00043,405.921,0.034,0.0262,0.0022,139.996,45.000,28550.25083,1.95575,406.047,32.666,45.067,45.000,0.00,0.09,-272.69,-272.74,-9,128,-1,19.3,0.9,-39.2,19.7,3.5,-25.0,5.73,2.37,-20.7,25.6
2015-01-02 01:17:00,0.0,1.95531,0.00034,405.926,0.031,0.0257,0.0014,139.998,45.000,28552.44116,1.95579,406.052,32.646,45.067,45.000,0.00,0.09,-272.69,-272.74,-8,129,-1,19.3,0.9,-39.1,19.7,3.5,-25.0,5.73,2.29,-20.7,25.7
2015-01-02 01:18:00,0.0,1.95585,0.00044,405.973,0.043,0.0250,0.0013,139.998,45.000,28556.08587,1.95631,406.095,32.640,45.067,45.000,0.00,0.09,-272.68,-272.75,-9,129,-1,19.3,0.9,-39.5,19.7,3.5,-25.1,5.73,2.33,-20.7,25.7
2015-01-02 01:19:00,0.0,1.95550,0.00050,405.950,0.041,0.0251,0.0017,139.998,45.000,28556.49048,1.95602,406.073,32.649,45.067,45.000,0.00,0.09,-272.68,-272.75,-9,129,-1,19.3,0.9,-39.4,19.7,3.5,-25.0,5.73,2.44,-20.8,25.7
2015-01-02 01:20:00,0.0,1.95670,0.00085,405.962,0.029,0.0252,0.0021,139.997,45.000,28557.44008,1.95709,406.086,32.650,45.068,45.000,0.00,0.09,-272.70,-272.75,-9,129,-1,19.3,0.9,-39.4,19.7,3.5,-25.0,5.73,2.48,-20.7,25.7
2015-01-02 01:21:00,0.0,1.95738,0.00056,405.976,0.025,0.0255,0.0013,139.997,45.000,28552.59884,1.95792,406.100,32.636,45.068,45.000,0.00,0.09,-272.69,-272.74,-8,129,-1,19.3,0.9,-39.4,19.7,3.5,-25.0,5.73,2.40,-20.7,25.7
2015-01-02 01:22:00,0.0,1.95582,0.00049,405.933,0.027,0.0245,0.0014,140.000,45.000,28551.55763,1.95632,406.053,32.640,45.068,45.000,0.00,0.09,-272.69,-272.75,-9,129,-1,19.3,0.8,-39.8,19.7,3.5,-25.0,5.73,2.30,-20.8,25.6
2015-01-02 01:23:00,0.0,1.95944,0.00192,406.053,0.066,0.0248,0.0013,139.999,45.000,28548.43753,1.95973,406.171,32.630,45.068,45.000,0.00,0.09,-272.69,-272.76,-9,128,-1,19.3,0.9,-39.8,19.7,3.5,-25.0,5.73,2.31,-20.7,25.7
2015-01-02 01:24:00,0.0,1.96272,0.00087,406.133,0.054,0.0246,0.0020,139.995,45.000,28548.10222,1.96313,406.254,32.636,45.068,45.000,0.00,0.09,-272.69,-272.75,-9,128,-1,19.3,0.9,-39.6,19.7,3.5,-25.0,5.73,2.41,-20.7,25.7
2015-01-02 01:25:00,0.0,1.96276,0.00040,406.065,0.025,0.0242,0.0019,140.000,45.000,28551.11879,1.96323,406.182,32.640,45.068,45.000,0.00,0.09,-272.69,-272.75,-8,129,-1,19.3,0.9,-39.8,19.7,3.5,-25.0,5.73,2.48,-20.7,25.7
2015-01-02 01:26:00,0.0,1.96331,0.00057,406.077,0.030,0.0242,0.0021,140.000,45.000,28555.48829,1.96379,406.195,32.626,45.068,45.000,0.00,0.09,-272.70,-272.74,-9,129,-1,19.3,0.8,-40.0,19.7,3.5,-25.0,5.73,2.43,-20.7,25.6
2015-01-02 01:27:00,0.0,1.96361,0.00096,406.073,0.026,0.0239,0.0018,139.999,45.000,28556.06431,1.96397,406.189,32.631,45.067,45.000,0.00,0.09,-272.69,-272.74,-9,129,-1,19.3,0.8,-40.1,19.7,3.5,-25.0,5.73,2.33,-20.8,25.7
2015-01-02 01:28:00,0.0,1.96539,0.00044,406.136,0.065,0.0240,0.0021,139.998,45.000,28553.94114,1.96583,406.249,32.637,45.068,45.000,0.00,0.09,-272.68,-272.74,-9,129,-1,19.3,0.8,-40.0,19.7,3.5,-25.0,5.73,2.30,-20.8,25.7
2015-01-02 01:29:00,0.0,1.96438,0.00110,406.072,0.068,0.0237,0.0017,140.000,45.000,28552.46390,1.96493,406.191,32.638,45.068,45.000,0.00,0.09,-272.68,-272.75,-8,129,-1,19.3,0.8,-40.4,19.7,3.5,-25.0,5.73,2.37,-20.7,25.7
2015-01-02 01:30:00,0.0,1.96469,0.00075,406.054,0.034,0.0230,0.0018,140.001,45.000,28553.44760,1.96512,406.166,32.634,45.067,45.000,0.00,0.09,-272.69,-272.74,-8,129,-1,19.3,0.8,-40.5,19.7,3.5,-25.1,5.73,2.46,-20.8,25.6
2015-01-02 01:31:00,0.0,1.96308,0.00046,406.064,0.030,0.0221,0.0019,139.999,45.000,28553.93419,1.96352,406.171,32.625,45.068,45.000,0.00,0.09,-272.69,-272.74,-9,129,-1,19.3,0.8,-40.7,19.7,3.5,-25.1,5.73,2.46,-20.8,25.7
2015-01-02 01:32:00,0.0,1.96280,0.00042,406.058,0.033,0.0228,0.0017,140.000,45.000,28555.63947,1.96327,406.170,32.625,45.068,45.000,0.00,0.09,-272.69,-272.74,-9,129,-1,19.3,0.8,-40.7,19.7,3.5,-25.1,5.73,2.37,-20.8,25.7
2015-01-02 01:33:00,0.0,1.96316,0.00198,406.036,0.041,0.0223,0.0014,139.999,45.000,28555.32074,1.96341,406.144,32.625,45.068,45.000,0.00,0.09,-272.69,-272.75,-8,130,-1,19.3,0.8,-41.0,19.7,3.5,-25.1,5.73,2.30,-20.8,25.7
2015-01-02 01:34:00,0.0,1.96625,0.00099,406.096,0.031,0.0218,0.0013,140.002,45.000,28557.77934,1.96677,406.202,32.625,45.068,45.000,0.00,0.09,-272.68,-272.75,-8,130,-1,19.3,0.7,-41.4,19.7,3.5,-25.1,5.73,2.32,-20.8,25.7
2015-01-02 01:35:00,0.0,1.96553,0.00034,406.098,0.026,0.0208,0.0017,140.000,45.000,28556.43679,1.96590,406.200,32.625,45.068,45.000,0.00,0.09,-272.68,-272.75,-9,129,-1,19.3,0.7,-41.8,19.7,3.5,-25.1,5.73,2.42,-20.8,25.6
2015-01-02 01:36:00,0.0,1.96423,0.00112,406.070,0.034,0.0203,0.0023,140.000,45.000,28558.61631,1.96476,406.170,32.624,45.068,45.000,0.00,0.09,-272.69,-272.75,-9,130,-1,19.3,0.7,-41.8,19.7,3.4,-25.1,5.73,2.48,-20.8,25.6
2015-01-02 01:37:00,0.0,1.96043,0.00085,406.172,0.087,0.0209,0.0014,140.000,45.000,28557.38582,1.96089,406.269,32.624,45.067,45.000,0.00,0.09,-272.69,-272.74,-8,129,-1,19.3,0.7,-41.7,19.7,3.5,-25.1,5.73,2.43,-20.8,25.6
2015-01-02 01:38:00,0.0,1.96280,0.00351,406.211,0.091,0.0212,0.0017,139.997,45.000,28558.05474,1.96299,406.318,32.623,45.067,45.000,0.00,0.09,-272.69,-272.74,-8,130,-1,19.3,0.7,-41.5,19.7,3.5,-25.1,5.73,2.33,-20.8,25.6
2015-01-02 01:39:00,0.0,1.96572,0.00087,406.081,0.029,0.0212,0.0024,140.001,45.000,28560.28711,1.96609,406.185,32.619,45.067,45.000,0.00,0.09,-272.69,-272.75,-9,130,-1,19.3,0.7,-41.7,19.7,3.5,-25.1,5.73,2.29,-20.8,25.6
2015-01-02 01:40:00,0.0,1.96802,0.00089,406.089,0.025,0.0201,0.0023,140.000,45.000,28564.70940,1.96844,406.186,32.606,45.067,45.000,0.00,0.09,-272.68,-272.75,-9,130,-1,19.3,0.7,-41.8,19.7,3.5,-25.1,5.73,2.36,-20.8,25.6
2015-01-02 01:41:00,0.0,1.96756,0.00066,406.104,0.040,0.0209,0.0024,139.999,45.000,28561.81886,1.96793,406.206,32.585,45.067,45.000,0.00,0.09,-272.68,-272.74,-9,130,-1,19.3,0.7,-42.1,19.7,3.5,-25.1,5.73,2.45,-20.8,25.6
2015-01-02 01:42:00,0.0,1.96286,0.00286,406.250,0.118,0.0202,0.0025,139.999,45.000,28561.61257,1.96354,406.345,32.571,45.068,45.000,0.00,0.09,-272.69,-272.74,-8,130,-1,19.3,0.7,-42.1,19.7,3.5,-25.1,5.73,2.47,-20.8,25.6
2015-01-02 01:43:00,0.0,1.96231,0.00203,406.233,0.126,0.0206,0.0017,140.000,45.000,28560.57961,1.96260,406.337,32.569,45.068,45.000,0.00,0.09,-272.70,-272.75,-9,130,-1,19.3,0.7,-42.1,19.7,3.5,-25.1,5.73,2.40,-20.8,25.6
2015-01-02 01:44:00,0.0,1.96183,0.00074,406.225,0.062,0.0208,0.0015,140.000,45.000,28557.98422,1.96227,406.324,32.600,45.068,45.000,0.00,0.09,-272.68,-272.74,-9,130,-1,19.3,0.7,-41.9,19.7,3.5,-25.1,5.73,2.31,-20.8,25.6
2015-01-02 01:45:00,0.0,1.96048,0.00072,406.309,0.027,0.0211,0.0018,139.999,45.000,28559.33490,1.96098,406.410,32.624,45.068,45.000,0.00,0.09,-272.68,-272.75,-9,129,-1,19.3,0.7,-41.5,19.7,3.5,-25.1,5.73,2.31,-20.8,25.6
2015-01-02 01:46:00,0.0,1.95937,0.00048,406.346,0.032,0.0218,0.0026,140.000,45.000,28559.28003,1.95978,406.454,32.629,45.067,45.000,0.00,0.09,-272.69,-272.75,-8,130,-1,19.3,0.7,-41.4,19.7,3.4,-25.2,5.73,2.40,-20.8,25.6